Location: Coed Ely
(51.5661°N, 3.4150°W)
Time: 19:54:58
(UTC+00:00)

ERS-2 - Pass Details

Date: 28 January 2021
Orbit: 492 x 497 km, 98.6° (Epoch: 27 February)

Event Time Altitude Azimuth Distance (km) Brightness Sun altitude
Exits shadow 17:58:31 11° 48° (NE) 1,611 4.1 -9.8°
Maximum altitude 18:00:59 20° 94° (E) 1,194 3.5 -10.1°
Drops below altitude 10° 18:03:42 10° 143° (SE) 1,686 4.6 -10.5°
Sets 18:06:11 0° 161° (SSE) 2,562 5.7 -10.9°
